TimeCDT,TemperatureF,Dew PointF,Humidity,Sea Level PressureIn,VisibilityMPH,Wind Direction,Wind SpeedMPH,Gust SpeedMPH,PrecipitationIn,Events,Conditions,WindDirDegrees,DateUTC
12:15 AM,42.8,39.2,87,29.82,10.0,WNW,6.9,-,N/A,,Clear,290,2012-10-15 05:15:00
12:35 AM,42.8,39.2,87,29.82,10.0,WNW,5.8,-,N/A,,Clear,300,2012-10-15 05:35:00
12:55 AM,42.8,37.4,81,29.83,10.0,WNW,5.8,-,N/A,,Clear,300,2012-10-15 05:55:00
1:15 AM,42.8,37.4,81,29.83,10.0,Calm,Calm,-,N/A,,Clear,0,2012-10-15 06:15:00
1:35 AM,41.0,37.4,87,29.84,10.0,WNW,3.5,-,N/A,,Clear,290,2012-10-15 06:35:00
1:55 AM,41.0,37.4,87,29.84,10.0,WNW,4.6,-,N/A,,Clear,300,2012-10-15 06:55:00
2:15 AM,41.0,37.4,87,29.84,10.0,WNW,4.6,-,N/A,,Clear,290,2012-10-15 07:15:00
2:35 AM,41.0,37.4,87,29.85,10.0,WNW,5.8,-,N/A,,Clear,290,2012-10-15 07:35:00
2:55 AM,41.0,37.4,87,29.85,10.0,WNW,4.6,-,N/A,,Clear,300,2012-10-15 07:55:00
3:15 AM,41.0,37.4,87,29.85,10.0,WNW,5.8,-,N/A,,Clear,300,2012-10-15 08:15:00
3:35 AM,41.0,35.6,81,29.85,10.0,WNW,5.8,-,N/A,,Clear,300,2012-10-15 08:35:00
3:55 AM,41.0,35.6,81,29.85,10.0,WNW,5.8,-,N/A,,Clear,300,2012-10-15 08:55:00
4:55 AM,39.2,35.6,87,29.87,10.0,WNW,4.6,-,N/A,,Clear,290,2012-10-15 09:55:00
5:15 AM,39.2,35.6,87,29.88,10.0,WNW,4.6,-,N/A,,Clear,300,2012-10-15 10:15:00
5:35 AM,37.4,35.6,93,29.89,10.0,WNW,4.6,-,N/A,,Clear,300,2012-10-15 10:35:00
5:55 AM,37.4,35.6,93,29.89,10.0,WNW,3.5,-,N/A,,Clear,300,2012-10-15 10:55:00
6:35 AM,37.4,33.8,87,29.89,10.0,Calm,Calm,-,N/A,,Clear,0,2012-10-15 11:35:00
7:15 AM,37.4,33.8,87,29.90,10.0,Calm,Calm,-,N/A,,Clear,0,2012-10-15 12:15:00
7:35 AM,37.4,33.8,87,29.90,10.0,Calm,Calm,-,N/A,,Clear,0,2012-10-15 12:35:00
7:55 AM,37.4,33.8,87,29.91,10.0,Calm,Calm,-,N/A,,Clear,0,2012-10-15 12:55:00
8:15 AM,39.2,35.6,87,29.91,10.0,NNW,3.5,-,N/A,,Clear,330,2012-10-15 13:15:00
8:35 AM,41.0,35.6,81,29.92,10.0,Calm,Calm,-,N/A,,Clear,0,2012-10-15 13:35:00
8:55 AM,42.8,35.6,76,29.93,10.0,NNW,3.5,-,N/A,,Clear,330,2012-10-15 13:55:00
9:15 AM,44.6,35.6,71,29.93,10.0,NW,4.6,-,N/A,,Clear,320,2012-10-15 14:15:00
9:35 AM,46.4,37.4,71,29.94,10.0,NW,4.6,-,N/A,,Clear,310,2012-10-15 14:35:00
9:55 AM,48.2,35.6,62,29.94,10.0,NNW,6.9,-,N/A,,Clear,330,2012-10-15 14:55:00
10:15 AM,50.0,35.6,58,29.94,10.0,North,8.1,-,N/A,,Clear,350,2012-10-15 15:15:00
10:35 AM,51.8,33.8,50,29.95,10.0,NNW,8.1,-,N/A,,Clear,330,2012-10-15 15:35:00
10:55 AM,51.8,35.6,54,29.95,10.0,NW,4.6,-,N/A,,Clear,320,2012-10-15 15:55:00
11:15 AM,53.6,35.6,51,29.96,10.0,NW,5.8,-,N/A,,Clear,310,2012-10-15 16:15:00
11:35 AM,53.6,33.8,47,29.96,10.0,NW,8.1,-,N/A,,Clear,320,2012-10-15 16:35:00
11:55 AM,55.4,33.8,44,29.95,10.0,NW,6.9,-,N/A,,Clear,310,2012-10-15 16:55:00
12:15 PM,55.4,33.8,44,29.95,10.0,NW,8.1,-,N/A,,Clear,310,2012-10-15 17:15:00
12:35 PM,57.2,33.8,41,29.95,10.0,West,6.9,-,N/A,,Clear,280,2012-10-15 17:35:00
12:55 PM,57.2,33.8,41,29.95,10.0,WNW,8.1,-,N/A,,Clear,290,2012-10-15 17:55:00
1:15 PM,59.0,33.8,39,29.94,10.0,NNW,4.6,-,N/A,,Clear,330,2012-10-15 18:15:00
1:35 PM,59.0,33.8,39,29.94,10.0,West,8.1,-,N/A,,Clear,270,2012-10-15 18:35:00
2:15 PM,60.8,33.8,36,29.94,10.0,West,6.9,-,N/A,,Clear,280,2012-10-15 19:15:00
2:35 PM,59.0,33.8,39,29.93,10.0,WNW,9.2,-,N/A,,Clear,290,2012-10-15 19:35:00
2:55 PM,59.0,33.8,39,29.92,10.0,NW,5.8,-,N/A,,Clear,320,2012-10-15 19:55:00
3:15 PM,60.8,32.0,34,29.92,10.0,NNW,6.9,-,N/A,,Clear,330,2012-10-15 20:15:00
3:35 PM,60.8,33.8,36,29.92,10.0,WNW,5.8,-,N/A,,Clear,300,2012-10-15 20:35:00
3:55 PM,59.0,33.8,39,29.92,10.0,WNW,5.8,-,N/A,,Clear,290,2012-10-15 20:55:00
4:15 PM,59.0,33.8,39,29.92,10.0,West,3.5,-,N/A,,Clear,280,2012-10-15 21:15:00
4:35 PM,59.0,33.8,39,29.92,10.0,West,4.6,-,N/A,,Clear,280,2012-10-15 21:35:00
4:55 PM,59.0,33.8,39,29.92,10.0,West,4.6,-,N/A,,Clear,270,2012-10-15 21:55:00
5:15 PM,59.0,35.6,42,29.92,10.0,West,3.5,-,N/A,,Clear,260,2012-10-15 22:15:00
5:35 PM,57.2,35.6,44,29.92,10.0,Calm,Calm,-,N/A,,Clear,0,2012-10-15 22:35:00
5:55 PM,57.2,35.6,44,29.91,10.0,Calm,Calm,-,N/A,,Clear,0,2012-10-15 22:55:00
6:15 PM,55.4,35.6,47,29.92,10.0,Calm,Calm,-,N/A,,Clear,0,2012-10-15 23:15:00
6:35 PM,53.6,37.4,54,29.92,10.0,SW,4.6,-,N/A,,Clear,230,2012-10-15 23:35:00
6:55 PM,53.6,39.2,58,29.92,10.0,SW,4.6,-,N/A,,Clear,220,2012-10-15 23:55:00
7:15 PM,53.6,37.4,54,29.92,10.0,SW,3.5,-,N/A,,Clear,220,2012-10-16 00:15:00
7:35 PM,53.6,37.4,54,29.92,10.0,Calm,Calm,-,N/A,,Clear,0,2012-10-16 00:35:00
7:55 PM,53.6,37.4,54,29.91,10.0,South,4.6,-,N/A,,Clear,190,2012-10-16 00:55:00
8:15 PM,50.0,37.4,62,29.92,10.0,SSW,4.6,-,N/A,,Clear,210,2012-10-16 01:15:00
8:35 PM,51.8,37.4,58,29.91,10.0,SSW,5.8,-,N/A,,Clear,200,2012-10-16 01:35:00
8:55 PM,50.0,39.2,66,29.92,10.0,South,4.6,-,N/A,,Clear,190,2012-10-16 01:55:00
9:15 PM,48.2,39.2,71,29.92,10.0,South,4.6,-,N/A,,Clear,170,2012-10-16 02:15:00
9:35 PM,50.0,39.2,66,29.92,10.0,South,3.5,-,N/A,,Clear,170,2012-10-16 02:35:00
9:55 PM,48.2,39.2,71,29.92,10.0,SSE,3.5,-,N/A,,Clear,150,2012-10-16 02:55:00
10:35 PM,46.4,39.2,76,29.91,10.0,SSE,4.6,-,N/A,,Clear,150,2012-10-16 03:35:00
10:55 PM,46.4,39.2,76,29.91,10.0,SSE,5.8,-,N/A,,Clear,160,2012-10-16 03:55:00
11:15 PM,46.4,39.2,76,29.91,10.0,South,6.9,-,N/A,,Clear,170,2012-10-16 04:15:00
11:35 PM,44.6,37.4,76,29.91,10.0,SSE,5.8,-,N/A,,Clear,160,2012-10-16 04:35:00
11:55 PM,44.6,37.4,76,29.91,10.0,SSE,5.8,-,N/A,,Clear,160,2012-10-16 04:55:00